Regional Weather Roundup
Issued by NWS Boston, MA

Home | Current Version | Previous Version | Text Only | Print | Product List | Glossary On
Versions: 1 2 3 4 5 6 7 8 9 10 11 12 13 14 15 16 17 18 19 20 21 22 23 24 25 26 27 28 29 30 31 32 33 34 35 36 37 38 39 40 41 42 43 44 45 46 47 48 49 50
000
ASUS41 KBOX 230310
RWRBOX

REGIONAL WEATHER ROUNDUP
NATIONAL WEATHER SERVICE TAUNTON MA
1100 PM EDT TUE JUL 22 2014

NOTE:  "FAIR" INDICATES FEW OR NO CLOUDS BELOW 12,000 FEET WITH NO
SIGNIFICANT WEATHER AND/OR OBSTRUCTIONS TO VISIBILITY.  THE FOLLOWING
OBSERVATION LOCATIONS DO NOT REPORT PRESENT WEATHER...PROVINCETOWN...
SMITHFIELD...BLOCK ISLAND...KEENE...AND OXFORD.

MAZALL-230400-
EASTERN MASSACHUSETTS

CITY           SKY/WX    TMP DP  RH WIND       PRES   REMARKS
BOSTON         PTCLDY    77  67  71 SW13      30.00F
BEVERLY        CLEAR     77  66  68 SW7       29.99F
LAWRENCE       CLEAR     78  67  68 SW7       30.01S
BEDFORD        CLEAR     75  68  78 SW8       29.99F
BLUE HILL        N/A     73  67  81 SW15G22   30.03F
NORWOOD        CLEAR     76  67  73 SW9       30.01F
MARSHFIELD     CLEAR     73  68  83 SW12      30.03F
PLYMOUTH       CLEAR     71  64  78 SW7       30.04F
TAUNTON        CLEAR     73  66  78 SW6       30.02F
NEW BEDFORD    CLEAR     71  65  81 SW10      30.03F
$$

MAZALL-230400-
CAPE COD AND THE ISLANDS

CITY           SKY/WX    TMP DP  RH WIND       PRES   REMARKS
FALMOUTH       CLEAR     70  64  83 SW12G18   30.05F
HYANNIS        CLEAR     71  65  81 SW9       30.04F
CHATHAM        CLEAR     71  66  84 W7G17     30.06S
PROVINCETOWN   CLEAR     70  66  88 SW12      30.03F
NANTUCKET      CLEAR     67  64  90 SW8       30.07F
MARTHAS VNYRD  CLEAR     70  62  76 W12       30.06F
$$

MAZALL-230400-
CENTRAL AND WESTERN MASSACHUSETTS

CITY           SKY/WX    TMP DP  RH WIND       PRES   REMARKS
WORCESTER      CLEAR     72  67  84 SW13      30.05F
FITCHBURG      CLEAR     79  67  66 SW8       30.02F
ORANGE           N/A    N/A N/A N/A MISG      30.01F
SPRINGFIELD    CLEAR     76  68  76 S9        30.01F
WESTFIELD      CLEAR     77  68  73 S9        30.01F
NORTH ADAMS    CLEAR     75  68  78 VRB3      30.01F
PITTSFIELD     CLEAR     75  67  76 SW9G17    30.03F
$$

RIZALL-230400-
RHODE ISLAND

CITY           SKY/WX    TMP DP  RH WIND       PRES   REMARKS
PROVIDENCE     CLEAR     74  64  71 SW10      30.04F
NEWPORT        CLEAR     70  64  81 VRB3      30.05F
BLOCK ISLAND   CLEAR     70  64  83 SW13      30.06F
SMITHFIELD     CLEAR     72  63  73 SW5       30.06F
WESTERLY       CLEAR     73  64  73 SW7       30.06F
$$

CTZALL-230400-
CONNECTICUT

CITY           SKY/WX    TMP DP  RH WIND       PRES   REMARKS
BRADLEY INTL   CLEAR     77  66  68 S8        30.02S
HARTFORD       CLEAR     74  65  73 S5        30.03F
BRIDGEPORT     CLEAR     76  66  71 SW9       30.05F
DANBURY        CLEAR     73  64  73 CALM      30.06F
GROTON         CLEAR     71  64  78 W7        30.05F
NEW HAVEN      CLEAR     76  65  68 SW3       30.05F
CHESTER        FAIR      72  64  78 SW6       30.07S
MERIDEN        CLEAR     73  64  73 S6        30.05S
WILLIMANTIC    CLEAR     74  65  73 S5        30.05F
OXFORD         CLEAR     72  63  73 SW5       30.08S
$$

MEZ002-015-021-024-NHZ003-005-008-011-012-014-VTZ005-008-230400-
NORTHERN NEW ENGLAND

CITY           SKY/WX    TMP DP  RH WIND       PRES   REMARKS
PORTLAND ME    CLEAR     70  65  84 S3        29.96F
BANGOR ME      PTCLDY    68  63  84 SW6       29.95F
CONCORD NH     PTCLDY    74  68  81 SW3       29.98F
MANCHESTER NH  CLEAR     78  67  68 S6        29.97F
NASHUA NH      CLEAR     78  68  71 VRB5      30.00F
PORTSMOUTH NH  CLEAR     76  68  76 SW5       29.96F
JAFFREY NH     CLEAR     73  67  81 S3        30.04F
KEENE NH       CLEAR     72  61  68 CALM      30.00F
BURLINGTON VT  PTCLDY    77  68  73 S7        29.92F
MT. WASHINGTON FOG       55  55 100 W36         N/A  VSB 0
$$

NYZ052-076-230400-
EASTERN NEW YORK

CITY           SKY/WX    TMP DP  RH WIND       PRES   REMARKS
ALBANY         PTCLDY    79  70  74 S7        29.98F
NEW YORK CITY  PTCLDY    78  63  59 SW15      30.05S
$$

ANZALL-230400-
MARINE OBSERVATIONS

STATION/POSITION TIME  TEMP    WIND        PRES    VSBY  WAVE
                       AIR SEA DIR/SP/G                  HT/PER
                 (UTC) (F)     (DEG/KT/KT) (MB)    (MI)  (FT/S)
BOSTON BUOY      NOT AVBL
BUZZARDS BAY     NOT AVBL
NANTUCKET SOUND  NOT AVBL
MASS BAY-STELLWA NOT AVBL
ISLE OF SHOALS   NOT AVBL
S OF BLOCK IS    NOT AVBL
$$

......................KEY.........................
  SKY/WX - SKY CONDITION/PRESENT WEATHER
  TMP    - TEMPERATURE IN FAHRENHEIT
  DWPT   - DEWPOINT IN FAHRENHEIT
  RH     - RELATIVE HUMIDITY IN PERCENT
  WIND   - DIRECTION AND SPEED IN MPH
  PRES   - MEAN SEA LEVEL PRESSURE IN INCHES OF HG
  WCI    - WIND CHILL INDEX
  VSB    - VISIBILITY IN MILES
  HX     - HEAT INDEX
  TC     - TEMPERATURE IN CELSIUS
  VRB    - VARIABLE WIND DIRECTION
  N/A    - NOT AVAILABLE


USA.gov is the U.S. government's official web portal to all federal, state and local government web resources and services.